Location: Krasnoyarskiy Pitomnik
(51.1333°N, 71.6167°E)
Time: 19:55:23
(UTC+00:00)

Vanguard 2 - Pass Details

Date: 01 May 2024
Orbit: 553 x 2914 km, 32.9° (Epoch: 22 May)

Event Time Altitude Azimuth Distance (km) Brightness Sun altitude
Exits shadow 21:48:55 11° 249° (WSW) 4,617 11.0 -15.0°
Maximum altitude 22:00:01 31° 196° (SSW) 3,896 10.6 -13.9°
Drops below altitude 10° 22:14:02 10° 143° (SE) 5,733 11.9 -12.3°
Sets 22:19:15 0° 134° (SE) 6,716 12.4 -11.8°
